EW4169 Weather Reports


Display with metric or nautical units.
time (UTC)temp
F
wind
direction
speed
MPH
gust
MPH
rain 1hr
in
rain 24hr
in
rain mn
in
humidity
%
barometer
mb
20260903123029 75 115 0.0 0.0 0.00 0.20 0.19 93 1017.2
20260903121552 75 114 0.0 0.0 0.00 0.20 0.19 93 1017.3
20260903120041 74 114 0.0 0.0 0.00 0.20 0.19 93 1017.2
20260903114551 74 114 0.0 0.0 0.00 0.20 0.19 93 1017.1
20260903113037 74 114 0.0 0.0 0.00 0.20 0.19 93 1017.1
20260903111547 74 114 0.0 0.0 0.00 0.20 0.19 93 1016.6
20260903110014 74 121 0.0 0.0 0.00 0.20 0.19 93 1016.6
20260903104538 74 120 0.0 0.0 0.00 0.20 0.19 93 1016.5
20260903103015 74 120 0.0 0.0 0.00 0.20 0.19 93 1016.6
20260903101539 74 120 0.0 0.0 0.00 0.20 0.19 93 1016.2
20260903100002 74 120 0.0 0.0 0.00 0.20 0.19 92 1016.0
20260903094544 74 120 0.0 0.0 0.01 0.20 0.19 92 1016.0
20260903093007 74 120 0.0 0.0 0.03 0.20 0.19 92 1015.9
20260903091529 74 120 0.0 0.0 0.03 0.20 0.19 92 1015.8
20260903090024 74 120 0.0 0.0 0.19 0.20 0.19 92 1015.7
20260903084536 74 120 0.0 0.0 0.18 0.19 0.18 92 1015.7
20260903083050 74 120 0.0 0.0 0.16 0.17 0.16 92 1016.4
20260903081540 74 120 0.0 0.0 0.16 0.17 0.16 91 1016.3
20260903080107 74 118 0.0 0.0 0.00 0.01 0.00 91 1016.6
20260903074557 74 112 0.0 0.0 0.00 0.01 0.00 91 1016.3
20260903073003 74 112 0.0 0.0 0.00 0.01 0.00 91 1015.5
20260903071535 74 112 0.0 0.0 0.00 0.01 0.00 91 1015.3
20260903070049 74 112 0.0 0.0 0.00 0.01 0.00 91 1015.1
20260903064535 74 112 0.0 0.0 0.00 0.01 0.00 91 1015.2
20260903063049 74 112 0.0 0.0 0.00 0.01 0.00 91 1014.9
20260903061543 74 112 0.0 0.0 0.00 0.01 0.00 91 1015.3
20260903060015 74 112 0.0 0.0 0.00 0.76 0.00 91 1015.5
20260903054537 74 112 0.0 0.0 0.00 0.76 0.00 91 1015.7
20260903053003 74 112 0.0 0.0 0.00 0.76 0.00 92 1016.2
20260903051541 74 112 0.0 0.0 0.00 0.76 0.00 92 1016.3
20260903050023 74 112 0.0 0.0 0.00 0.99 0.00 92 1016.2
20260903044533 74 112 0.0 0.0 0.00 0.99 0.00 92 1016.0
20260903043051 75 112 0.0 0.0 0.00 0.99 0.00 92 1016.4
20260903041540 75 119 0.0 0.0 0.00 0.99 0.00 92 1016.5
20260903040047 75 119 0.0 0.0 0.00 1.27 0.00 92 1016.4
20260903034503 75 119 0.0 0.0 0.00 1.27 0.99 92 1016.3
20260903033039 75 119 0.0 0.0 0.00 1.27 0.99 92 1016.3
20260903031605 75 119 0.0 1.0 0.00 1.27 0.99 92 1016.5
20260903030023 75 126 0.0 0.0 0.00 1.27 0.99 92 1016.4
20260903024554 75 126 0.0 0.0 0.00 1.27 0.99 92 1016.7
20260903023017 75 126 0.0 0.0 0.00 1.27 0.99 92 1016.4
20260903021555 75 30 0.0 0.0 0.00 1.27 0.99 92 1016.2
20260903020021 75 116 0.0 0.0 0.00 1.27 0.99 92 1016.4
20260903014555 75 124 0.0 1.0 0.00 1.27 0.99 92 1016.4
20260903013013 75 131 0.0 0.0 0.00 1.27 0.99 92 1016.6
20260903011600 75 131 0.0 0.0 0.00 1.27 0.99 92 1016.7
20260903011501 75 131 0.0 0.0 0.00 1.27 0.99 92 1016.7
20260903010058 75 131 0.0 0.0 0.00 1.27 0.99 92 1016.6
20260903004538 75 131 0.0 0.0 0.00 1.27 0.99 92 1016.5
20260903003102 75 131 0.0 0.0 0.00 1.27 0.99 92 1016.3
20260903003001 75 131 0.0 0.0 0.00 1.27 0.99 92 1016.3
20260903001522 75 134 0.0 0.0 0.00 1.27 0.99 92 1016.3
20260903000039 75 81 0.0 4.0 0.00 1.27 0.99 92 1016.4
20260902234605 75 113 0.0 4.0 0.00 1.27 0.99 92 1016.2
20260902233025 75 126 0.0 0.0 0.00 1.27 0.99 92 1016.5
20260902231607 75 126 0.0 2.0 0.00 1.27 0.99 92 1016.3
20260902230046 76 104 0.0 0.0 0.00 1.27 0.99 92 1016.4
20260902224505 76 108 0.0 1.0 0.00 1.27 0.99 92 1016.2
20260902223041 76 107 0.0 0.0 0.00 1.27 0.99 92 1016.3
20260902221516 76 124 0.0 1.0 0.00 1.27 0.99 92 1016.9
20260902220039 76 124 0.0 1.0 0.00 1.27 0.99 92 1016.9
20260902214555 76 128 0.0 1.0 0.01 1.27 0.99 92 1016.8
20260902213039 76 118 0.0 0.0 0.01 1.27 0.99 92 1016.9
20260902211604 76 118 0.0 0.0 0.01 1.27 0.99 92 1016.8
20260902211505 76 118 0.0 0.0 0.01 1.27 0.99 92 1016.9
20260902210030 75 274 0.0 1.0 0.01 1.27 0.99 92 1016.6
20260902204512 75 108 0.0 5.0 0.00 1.26 0.98 92 1015.6
20260902203046 75 110 1.0 5.0 0.00 1.26 0.98 91 1014.9
20260902200053 76 98 0.0 2.0 0.00 1.26 0.98 89 1015.5
20260902194531 77 103 0.0 0.0 0.00 1.26 0.98 87 1017.2
20260902193043 77 103 0.0 0.0 0.00 1.26 0.98 87 1018.6
20260902191543 78 266 0.0 2.0 0.00 1.26 0.98 85 1018.5
20260902190051 78 122 0.0 3.0 0.00 1.26 0.98 85 1018.1
20260902184523 78 108 0.0 3.0 0.00 1.26 0.98 85 1018.1
20260902183102 78 122 0.0 4.0 0.00 1.26 0.98 86 1017.9
20260902181512 78 133 0.0 5.0 0.00 1.26 0.98 86 1018.3
20260902180049 78 281 0.0 6.0 0.00 1.26 0.98 87 1018.4
20260902174513 78 119 0.0 4.0 0.00 1.26 0.98 88 1018.5
20260902173050 79 118 1.0 3.0 0.00 1.26 0.98 88 1018.2
20260902171515 78 275 0.0 3.0 0.00 1.26 0.98 90 1018.1
20260902170048 78 127 0.0 7.0 0.00 1.26 0.98 91 1017.8
20260902164513 78 117 2.0 6.0 0.00 1.26 0.98 92 1017.9
20260902163109 78 354 0.0 5.0 0.00 1.26 0.98 94 1017.8
20260902161519 77 130 0.0 7.0 0.00 1.26 0.98 94 1017.8
20260902160059 77 130 1.0 7.0 0.00 1.26 0.98 94 1017.7
20260902154525 77 253 0.0 5.0 0.00 1.26 0.98 95 1017.8
20260902153056 77 290 0.0 5.0 0.00 1.26 0.98 95 1017.8
20260902151540 76 112 0.0 6.0 0.00 1.26 0.98 95 1017.7